This is the latest recevied weather packets stored in our database for station/object XE2OR-10. If no packets are shown the sender has not sent any weather packets the latest 10 day(s).
| Time | Temp. | Humidity | Pressure | Rain* | Wind** | Luminosity | Snow |
|---|---|---|---|---|---|---|---|
| 1777643032 | 18.33° C | 99% | 1015.8 hPa | 0 mm | - | 66 W/m² | - |
| 1777642728 | 17.78° C | 99% | 1015.8 hPa | 0 mm | - | 54 W/m² | - |
| 1777642429 | 17.78° C | 99% | 1015.7 hPa | 0 mm | - | 55 W/m² | - |
| 1777642129 | 17.78° C | 99% | 1015.2 hPa | 0 mm | - | 58 W/m² | - |
| 1777641832 | 18.33° C | 99% | 1015.2 hPa | 0 mm | - | 47 W/m² | - |
| 1777641529 | 17.78° C | 99% | 1016.2 hPa | 0 mm | - | 32 W/m² | - |
| 1777641232 | 17.78° C | 99% | 1015.6 hPa | 0 mm | - | 62 W/m² | - |
| 1777640929 | 17.78° C | 99% | 1015.5 hPa | 0 mm | - | 50 W/m² | - |
| 1777640630 | 17.78° C | 99% | 1015.6 hPa | 0 mm | - | 41 W/m² | - |
| 1777640329 | 17.78° C | 99% | 1015.1 hPa | 0 mm | - | 31 W/m² | - |
| 1777640033 | 17.78° C | 99% | 1015.5 hPa | 0 mm | - | 24 W/m² | - |
| 1777639729 | 17.78° C | 99% | 1015.5 hPa | 0 mm | - | 12 W/m² | - |
| 1777639433 | 17.78° C | 99% | 1016.1 hPa | 0 mm | - | 13 W/m² | - |
| 1777639129 | 17.78° C | 99% | 1016 hPa | 0 mm | - | 12 W/m² | - |
| 1777638829 | 17.78° C | 99% | 1015.9 hPa | 0 mm | - | 7 W/m² | - |
| 1777638530 | 17.78° C | 99% | 1016.1 hPa | 0 mm | - | 3 W/m² | - |
| 1777638233 | 17.78° C | 99% | 1016.4 hPa | 0 mm | - | 2 W/m² | - |
| 1777637929 | 17.78° C | 99% | 1016.5 hPa | 0 mm | - | 0 W/m² | - |
| 1777637632 | 17.78° C | 99% | 1016.8 hPa | 0 mm | - | 0 W/m² | - |
| 1777637329 | 17.78° C | 99% | 1016.6 hPa | 0 mm | - | 0 W/m² | - |
| 1777637029 | 17.78° C | 99% | 1016.4 hPa | 0 mm | - | 0 W/m² | - |
| 1777636728 | 18.33° C | 99% | 1016.5 hPa | 0 mm | - | 0 W/m² | - |
| 1777636432 | 18.33° C | 99% | 1016.5 hPa | 0 mm | - | 0 W/m² | - |
| 1777636129 | 17.78° C | 99% | 1016.4 hPa | 0 mm | - | 0 W/m² | - |
| 1777635832 | 18.33° C | 99% | 1016.3 hPa | 0 mm | - | 0 W/m² | - |
* Rain latest hour (hover to see other rain measurements)
** Current wind speed in m/s (hover to see current wind gust speed)